Theta_e
314 317 317 318 318 317 316 315 317 320 318 317 319 322 323 322 320 317 316 311 307 314 318 318 319 318 318 316 312 312 312 310 310 312 314 315 316 316 316 315 316 315 315 316 315 315 315 315 315 314 315 316 316 316 316 316 316 317 316 316 317 316 316 316 316 316 316 318 320 322 325 326 327 329 331 329 325 324 325 325 326 325 322 326 330 330
314 317 318 319 317 315 316 315 317 317 317 318 319 320 318 318 319 314 313 313 309 312 318 317 320 318 317 317 312 309 312 311 311 312 314 315 315 315 316 315 315 315 315 315 315 315 314 315 314 314 314 315 316 316 316 316 316 316 317 316 317 317 316 316 316 317 316 317 318 319 321 323 324 325 326 328 327 324 320 319 323 327 328 329 330 332
316 318 320 315 309 310 313 315 319 320 321 323 319 318 319 318 318 315 312 314 312 313 319 320 320 318 318 318 313 309 311 313 313 313 313 314 315 315 315 315 315 315 315 315 314 315 315 315 314 314 315 314 315 316 316 316 316 316 317 317 317 317 317 316 316 316 316 317 317 318 320 321 324 324 323 325 326 326 324 324 328 332 333 331 329 330
318 320 317 308 306 312 314 314 318 320 320 322 320 320 320 317 318 317 314 314 313 312 316 320 318 316 316 318 316 310 308 310 311 313 313 313 314 314 314 315 315 315 315 315 314 315 314 315 314 314 314 314 315 315 315 316 316 317 317 317 317 317 317 317 316 316 316 317 318 320 322 322 324 325 325 325 325 326 326 328 331 331 332 333 331 330
320 315 307 305 310 317 316 313 316 318 316 317 323 328 325 321 320 318 315 315 315 313 314 316 316 321 325 325 326 315 307 308 310 310 312 313 314 314 315 315 316 316 316 315 315 315 315 315 315 315 314 314 314 315 315 316 316 316 317 317 317 317 317 317 317 317 317 318 319 320 322 324 325 326 326 327 326 325 324 324 325 324 323 328 332 332
318 309 305 310 314 317 318 316 318 320 317 315 322 328 328 328 324 319 317 318 320 316 312 311 314 329 335 330 329 322 315 315 310 306 310 313 314 312 314 314 314 316 316 316 316 315 316 315 315 315 315 315 314 315 315 315 316 316 317 317 317 317 317 317 317 317 317 317 318 320 321 322 324 324 324 324 323 323 323 322 321 319 317 321 326 328
314 308 310 316 316 316 317 315 316 319 319 317 317 319 324 328 325 322 319 317 319 315 309 311 315 323 327 322 322 323 322 324 316 309 310 313 314 312 313 314 314 314 315 315 316 316 316 316 316 315 315 315 315 315 316 316 316 316 317 316 317 317 317 317 317 317 318 318 318 319 320 320 321 321 320 320 320 320 321 321 321 320 318 320 325 328
312 311 313 316 317 317 317 316 316 316 320 319 315 316 323 327 326 326 323 321 321 315 314 319 319 315 318 316 317 318 321 323 321 318 314 311 313 313 313 314 314 314 314 314 314 316 317 317 316 316 316 316 316 316 316 316 317 316 317 317 317 317 317 317 317 317 317 318 318 318 319 319 319 319 319 320 321 321 321 322 321 321 321 321 324 327
312 317 316 316 317 317 318 320 316 316 321 319 312 314 320 323 326 329 330 328 319 312 318 324 314 313 322 321 317 314 316 318 320 321 316 310 312 313 313 314 314 314 314 313 314 316 318 318 318 317 317 317 317 317 317 317 317 317 317 317 317 317 317 317 317 317 318 318 318 318 318 318 318 319 320 321 321 322 321 321 321 321 322 321 322 322
312 315 313 315 318 317 318 316 313 318 322 314 308 313 317 319 324 326 328 326 316 313 324 324 313 312 320 324 321 314 314 319 321 321 314 308 312 315 314 314 313 315 314 314 316 317 318 318 318 318 318 318 317 317 317 318 318 318 318 318 318 318 318 317 318 317 317 318 317 317 317 317 318 318 319 320 320 320 320 320 320 320 320 321 321 322
310 310 310 312 314 313 313 310 309 315 315 309 313 319 318 321 325 326 327 321 314 319 326 320 314 312 313 323 325 314 315 319 318 321 318 311 313 316 316 315 314 315 316 316 317 318 319 319 318 318 318 318 318 317 318 318 318 318 318 318 318 318 318 317 318 317 317 317 317 316 316 316 317 317 318 318 318 319 319 319 318 318 319 319 319 320
313 313 312 311 310 309 313 314 309 308 308 311 322 323 317 321 323 325 328 320 316 325 321 313 312 311 311 323 327 319 317 316 314 319 321 314 313 316 317 317 316 316 317 318 318 318 318 318 317 318 318 318 318 317 318 318 317 318 317 318 318 317 317 317 317 317 317 316 316 316 316 316 316 316 316 317 316 317 317 317 317 317 317 317 317 318
318 318 313 311 310 310 318 321 312 310 313 316 321 321 319 321 318 322 327 320 320 322 314 311 313 312 312 317 319 318 318 315 309 310 314 312 312 316 317 317 317 318 318 318 318 318 318 318 317 318 318 318 318 317 318 318 318 317 317 317 317 317 317 317 317 316 316 316 316 316 316 316 316 316 316 316 316 316 316 316 316 315 316 315 315 315
319 320 315 314 314 311 315 320 316 316 317 316 316 319 321 321 316 319 321 315 316 318 311 310 313 315 316 314 313 316 313 311 309 307 310 311 312 315 315 317 318 318 318 318 318 317 317 318 317 317 318 317 318 317 317 318 317 317 317 317 317 317 317 316 316 316 316 316 316 316 316 316 316 316 316 316 316 316 315 315 315 315 315 315 315 314
317 319 317 317 315 313 314 316 318 320 317 315 316 315 317 324 323 321 320 319 319 319 313 310 314 321 322 314 314 313 308 308 310 311 312 312 313 315 314 316 318 318 318 317 317 318 317 317 317 317 317 317 317 317 317 317 317 317 317 317 317 316 316 316 316 316 316 316 316 316 316 316 316 316 316 316 316 316 316 315 315 315 315 315 314 314
315 315 316 313 310 312 315 313 314 318 318 315 313 313 314 322 324 317 313 316 317 316 315 313 316 324 320 314 313 309 307 308 308 309 313 313 313 314 314 316 316 318 319 317 317 317 317 317 317 317 317 317 317 317 317 317 317 317 317 316 317 316 316 316 316 316 316 316 316 316 316 316 316 316 316 316 316 316 316 315 315 315 315 315 314 314
314 314 314 312 310 311 313 311 310 313 317 315 313 317 318 316 321 317 308 309 310 312 315 314 317 320 314 313 315 312 312 314 311 310 310 311 314 313 314 316 315 317 318 317 317 317 317 317 317 317 317 317 317 317 317 317 317 317 317 316 317 316 317 317 316 317 316 316 316 316 316 316 316 316 316 316 316 316 315 315 315 315 315 315 315 314
318 316 313 314 315 311 308 309 308 308 312 318 318 319 314 310 317 319 313 316 315 314 317 315 314 317 314 314 318 316 314 317 319 316 309 309 314 314 314 315 314 315 315 316 317 317 317 317 316 317 317 317 317 317 317 317 316 317 317 317 317 316 317 317 316 317 316 317 316 316 316 316 316 316 316 316 316 316 315 315 315 315 315 315 315 314
318 318 313 311 316 313 310 312 313 309 308 315 317 313 313 316 318 315 314 320 318 314 320 319 312 312 313 315 319 315 315 321 321 319 316 313 312 312 313 313 313 314 313 315 316 316 317 317 317 317 317 317 317 317 317 317 317 317 317 317 317 317 317 317 317 317 317 317 316 316 316 316 316 316 316 316 316 315 316 315 315 315 315 315 315 315
314 317 313 311 312 313 314 315 317 317 310 310 310 308 315 323 321 317 314 316 316 314 318 320 317 316 315 317 320 314 316 323 321 321 321 313 308 310 312 312 313 314 314 315 316 316 316 316 317 317 317 317 317 316 317 317 317 317 317 317 317 317 317 317 317 317 316 317 317 317 317 316 316 316 316 316 316 316 316 315 315 315 315 315 314 315
312 312 311 313 312 313 318 317 316 318 314 312 313 312 315 317 315 317 314 313 318 318 318 318 318 322 322 318 319 315 316 320 322 324 320 310 307 309 310 311 313 313 315 316 316 316 316 316 317 317 317 317 316 317 317 316 317 316 316 316 316 316 316 316 316 316 317 317 317 317 317 316 316 316 316 316 316 316 316 316 316 315 315 315 314 314
312 311 314 317 315 316 319 315 312 316 316 314 315 314 316 315 314 317 314 312 314 314 317 317 313 319 325 318 319 320 317 313 311 311 311 310 309 310 310 312 312 313 317 318 317 316 316 316 317 317 317 317 316 316 316 316 316 316 316 316 316 316 316 316 316 316 316 316 316 317 316 316 316 316 316 316 316 316 316 316 316 315 315 315 314 314
311 315 320 320 318 317 315 309 305 310 314 314 315 315 315 314 316 318 316 315 313 309 312 315 314 316 317 314 316 315 308 305 304 303 307 311 311 311 312 312 313 315 317 317 317 316 316 317 317 317 317 316 316 316 316 316 316 316 316 316 316 316 316 315 316 315 315 316 316 316 316 316 316 316 316 316 315 316 315 315 315 315 315 315 315 314
310 315 318 317 318 318 316 311 307 308 312 314 315 315 314 315 316 319 319 317 316 313 312 314 315 315 314 312 309 305 302 305 307 307 308 311 312 313 313 313 315 316 317 316 316 316 316 317 317 316 316 316 316 316 316 316 316 316 316 316 316 316 316 316 316 315 315 316 316 316 316 316 316 315 316 315 315 315 315 315 315 315 315 315 315 315
310 315 315 315 317 317 316 317 315 313 313 315 317 314 314 316 315 314 315 313 314 317 316 316 317 315 318 317 310 307 311 311 309 310 311 312 314 314 314 315 316 316 316 316 316 315 316 316 316 316 316 316 316 316 316 316 315 315 315 315 315 316 316 316 316 316 316 316 316 316 316 316 315 315 315 315 315 315 315 315 315 315 315 315 314 315
312 315 314 314 314 313 313 315 316 316 314 315 317 314 313 316 315 314 316 315 314 317 316 315 316 313 314 318 314 314 319 317 311 311 313 313 314 315 315 315 315 315 315 315 315 315 315 315 316 316 315 316 316 316 316 315 315 315 315 315 315 316 316 316 316 316 316 316 316 315 315 315 315 315 315 315 315 315 315 314 314 314 314 314 314 314
317 316 312 312 312 311 311 314 318 319 317 315 317 316 314 314 315 316 319 317 315 315 314 313 314 313 313 315 316 318 323 324 316 310 312 314 315 315 315 315 315 315 315 315 315 315 315 315 315 315 315 316 316 316 316 315 315 316 315 315 315 315 315 315 315 316 315 315 315 315 315 315 314 314 314 314 314 314 314 314 314 314 314 314 314 314
319 315 311 312 312 311 311 315 319 319 318 317 316 316 315 314 314 316 316 315 313 313 314 313 312 312 312 313 317 321 325 324 315 309 312 315 314 315 316 315 315 315 315 316 315 315 315 315 315 315 315 316 315 316 316 315 315 315 315 315 315 315 315 315 315 315 315 315 315 314 314 314 314 314 314 314 313 313 313 313 313 313 313 313 314 313
317 314 313 313 312 311 311 315 319 318 316 317 316 315 315 313 314 315 314 314 314 313 313 313 313 314 312 312 315 317 316 317 314 311 313 315 314 316 316 315 316 315 315 316 315 315 315 314 314 315 315 316 315 316 316 315 315 315 315 315 315 315 315 315 315 315 314 314 314 313 314 313 313 313 312 312 312 312 312 312 312 312 312 312 313 313
314 317 316 312 311 313 311 313 318 318 315 315 315 314 314 313 313 314 314 313 313 313 313 314 315 315 312 311 312 311 311 311 311 311 312 314 315 316 315 315 315 315 315 315 314 314 313 313 314 315 315 315 315 315 315 315 315 315 315 315 315 315 315 314 314 314 313 314 313 313 313 312 312 312 312 311 311 311 311 311 311 312 311 312 312 312
311 318 318 312 311 313 312 312 316 317 315 315 315 314 313 313 312 312 313 313 313 313 313 313 314 314 311 310 310 310 310 309 309 309 310 312 313 313 314 314 314 314 314 314 313 312 312 313 314 314 315 315 315 315 315 314 314 315 315 315 315 315 314 314 313 313 313 313 312 312 312 311 311 311 311 311 311 311 311 311 311 312 312 312 312 311
311 316 317 314 313 314 313 313 313 311 311 312 314 314 313 313 312 312 312 313 313 314 314 314 314 313 311 310 310 310 308 307 307 308 309 311 312 312 312 313 313 313 313 312 312 311 313 314 314 314 314 315 314 314 314 314 315 315 315 315 314 314 314 313 313 312 312 311 311 311 310 310 310 310 310 310 310 311 311 311 311 311 311 311 311 311
314 316 317 316 316 315 314 314 312 311 311 312 313 313 313 312 312 312 311 312 313 313 314 314 313 313 312 312 312 312 309 307 308 309 310 311 312 312 312 312 312 312 312 312 311 312 313 314 314 314 314 314 314 314 314 314 314 314 314 313 313 313 312 312 312 311 311 311 310 310 309 309 309 309 309 309 310 310 310 310 310 310 310 310 310 310
314 316 316 315 317 317 314 312 313 313 314 314 313 311 311 311 312 312 312 312 312 312 312 313 313 313 313 312 313 313 311 309 309 310 311 312 311 312 312 312 312 311 311 312 312 312 313 313 313 313 313 314 314 314 313 313 312 312 312 312 312 312 311 311 311 311 310 310 310 309 309 309 309 309 309 309 309 310 309 309 309 309 309 309 309 309
314 315 315 315 317 316 312 312 314 315 315 315 316 315 312 310 311 312 312 312 312 311 312 312 313 312 312 311 310 310 310 310 310 311 311 310 310 311 311 311 311 311 311 312 312 313 313 312 313 313 313 313 313 312 312 311 311 311 311 311 311 311 311 311 310 310 310 309 309 309 309 309 309 309 309 309 309 309 309 309 308 308 308 308 308 308
315 315 316 317 317 316 314 314 315 316 316 316 319 319 314 310 310 311 311 311 310 310 311 311 311 311 310 309 309 309 309 309 310 310 310 310 310 310 310 311 311 311 311 311 311 312 312 312 312 312 312 311 311 310 310 310 310 311 311 311 311 310 310 310 309 309 309 309 308 308 308 308 308 308 308 308 308 308 308 308 308 308 308 308 308 308
314 315 315 316 316 316 316 315 315 316 317 316 319 319 315 312 313 312 312 313 311 310 310 310 310 310 309 309 309 309 309 309 310 310 309 310 311 310 310 310 310 310 310 310 310 311 311 311 310 310 310 309 309 310 310 310 310 310 310 310 309 309 309 309 308 308 308 308 308 307 308 308 307 307 307 307 307 307 307 307 307 307 307 307 307 307
313 314 315 315 316 315 315 315 315 317 316 315 317 317 312 311 312 312 313 315 314 311 309 309 310 310 309 309 308 308 309 311 312 310 308 308 309 308 308 308 308 308 309 309 309 309 308 309 309 308 309 309 309 309 309 309 309 309 309 309 308 308 307 307 307 306 306 306 306 306 306 306 306 306 306 306 306 306 305 305 305 305 305 305 305 305
312 312 313 314 315 315 315 316 316 317 317 317 318 315 309 308 310 311 313 316 315 309 307 309 310 309 308 307 307 308 310 313 313 309 305 305 306 306 306 307 307 307 307 307 307 307 307 308 308 307 308 308 308 308 308 308 308 307 307 306 306 306 305 305 305 305 305 305 304 304 304 304 304 304 304 304 304 304 304 303 303 304 304 304 305 304
311 311 311 312 314 315 315 316 316 316 317 317 316 312 309 308 310 313 317 318 311 304 305 308 308 307 308 307 307 310 312 313 311 306 302 303 305 305 305 305 305 306 306 306 306 306 306 306 306 306 307 306 306 306 306 305 305 305 305 304 304 304 303 303 304 303 303 303 303 303 303 303 303 303 303 303 303 303 303 303 303 303 303 304 304 304
311 311 311 311 313 313 314 315 315 314 317 317 313 309 308 310 313 317 317 313 305 300 303 306 305 306 307 307 308 309 307 306 305 303 302 303 304 303 304 304 304 304 304 304 304 304 304 304 304 304 304 304 304 303 303 303 303 303 302 302 302 302 302 302 302 302 302 302 302 302 302 302 302 302 302 302 302 302 302 302 302 303 303 303 304 304
312 311 311 312 312 312 313 314 313 313 314 313 310 307 308 312 316 315 310 304 301 301 303 304 304 305 306 306 306 305 302 301 302 301 301 302 302 302 302 302 302 302 302 302 302 302 302 302 302 302 302 302 302 302 302 302 302 302 302 302 302 302 302 302 302 301 302 301 301 302 302 301 301 301 301 301 302 301 301 301 302 302 302 303 303 304
312 312 312 312 312 312 312 312 313 314 311 307 307 309 310 312 313 309 303 300 301 303 303 303 303 304 304 304 302 301 301 300 300 300 300 300 300 300 300 300 300 300 300 301 301 301 301 301 301 300 300 300 300 300 300 300 300 300 300 300 300 301 301 301 301 301 301 301 301 301 301 301 301 301 301 301 301 301 301 301 301 301 302 302 303 304
312 313 312 312 312 312 312 313 312 310 306 304 307 310 309 308 307 305 302 301 302 302 303 302 302 302 303 302 301 300 301 300 299 299 299 300 299 299 299 299 299 299 299 299 300 300 301 301 301 301 300 299 298 298 298 298 298 298 298 298 298 299 299 299 299 299 299 300 300 300 300 300 300 300 300 300 300 300 300 300 300 300 301 301 302 303
312 311 311 313 312 310 311 312 309 303 301 302 304 306 305 305 305 305 305 303 302 302 303 303 301 301 302 302 301 301 301 300 300 300 300 300 300 300 300 299 299 298 298 298 299 299 299 300 300 300 300 298 297 297 297 296 296 296 296 296 296 296 296 297 297 297 297 297 297 297 298 298 298 299 299 299 299 299 299 299 299 299 300 300 300 301
307 305 307 312 311 307 306 306 303 301 300 302 303 303 304 304 304 305 305 305 304 304 304 303 303 303 302 302 302 302 302 301 301 301 301 301 301 300 300 300 299 298 298 298 298 298 298 298 298 297 297 296 295 295 295 295 294 294 294 294 294 294 294 294 294 294 294 294 294 294 295 295 296 296 296 297 297 297 298 298 298 298 298 299 299 300
305 303 307 311 310 309 309 306 302 301 301 300 302 303 303 304 304 304 306 306 305 304 304 304 304 303 303 303 303 303 302 301 301 301 300 300 300 300 299 299 298 298 297 297 296 296 296 295 295 295 295 295 294 294 294 293 293 293 293 293 294 293 293 294 294 294 294 294 294 294 293 293 294 294 294 294 295 295 295 296 296 297 297 297 297 298
306 305 308 310 309 308 307 303 301 301 300 299 301 303 303 304 304 304 305 305 304 304 304 303 302 302 301 301 301 300 300 299 298 298 297 297 297 297 296 296 296 295 295 294 294 294 294 293 293 293 293 293 293 293 293 293 293 293 293 293 293 293 293 293 293 293 294 294 294 294 294 294 293 293 293 293 293 294 294 294 295 295 295 296 296 297
305 306 308 309 308 305 303 301 300 301 301 299 299 301 302 303 304 303 304 304 303 303 302 300 299 299 298 298 298 297 297 296 296 295 295 294 294 294 294 294 293 293 293 293 293 293 293 293 293 292 292 293 292 292 292 292 292 292 292 292 292 292 292 292 292 293 293 293 294 294 294 294 294 293 293 293 293 293 294 294 294 295 295 294 295 296
303 307 307 306 307 307 305 302 301 304 305 302 300 301 302 302 302 303 303 302 301 300 299 298 298 298 297 297 297 297 296 296 295 295 294 294 293 293 293 292 292 292 292 292 292 292 292 292 292 292 292 292 292 292 292 292 291 291 291 291 291 291 291 291 292 292 292 292 293 293 294 294 294 294 293 293 293 293 293 293 294 294 295 295 294 295
302 306 306 305 308 308 305 303 302 304 304 303 302 302 301 301 301 301 301 300 299 299 299 299 299 298 298 298 297 297 296 296 295 295 294 293 293 292 292 292 292 292 292 292 292 292 292 291 291 291 291 291 291 291 291 291 291 291 291 291 291 291 291 291 291 291 291 291 292 292 293 293 294 294 294 293 293 293 293 293 293 294 294 295 295 295
Wind_Speed
4 4 3 5 6 7 8 6 6 5 6 7 6 4 4 4 3 3 3 5 2 3 3 4 4 8 12 11 15 25 19 13 18 21 25 27 26 28 28 30 30 30 30 28 27 26 26 26 26 25 24 24 25 25 25 25 25 24 24 24 24 24 24 26 27 28 29 31 32 32 34 35 33 33 35 35 33 30 31 31 32 32 27 25 30 31
4 5 6 6 7 7 6 6 7 6 6 6 6 5 2 2 3 2 1 5 3 1 2 3 5 9 12 11 16 21 16 13 20 22 25 28 28 30 31 32 33 32 32 31 30 29 29 29 28 27 27 27 27 26 25 24 23 23 24 24 22 22 24 25 25 27 28 29 30 31 32 32 32 31 32 35 35 33 30 28 29 32 29 26 31 36
2 4 7 6 6 7 6 6 8 7 7 5 4 5 2 2 3 3 2 4 4 0 3 4 5 10 11 11 15 19 16 18 23 24 26 28 29 33 34 34 34 33 33 32 31 30 29 29 29 28 28 28 28 26 25 25 24 24 24 23 22 22 23 23 23 25 26 26 27 28 29 29 29 29 28 31 34 34 32 28 28 35 35 30 32 36
4 5 6 8 9 9 6 4 8 7 5 4 4 5 3 2 1 2 2 4 4 2 1 3 5 8 8 7 12 17 17 19 23 25 28 28 30 33 33 32 32 31 30 29 28 26 26 27 28 29 29 28 28 27 27 26 25 25 24 22 21 21 21 21 22 22 23 24 26 27 28 28 28 29 28 29 31 33 33 31 31 35 36 35 35 35
5 4 3 9 7 7 7 3 5 6 2 1 3 6 4 3 4 3 1 2 3 3 3 3 5 7 5 5 8 8 7 10 14 17 22 23 25 26 26 25 24 22 21 19 16 14 15 19 22 25 26 27 27 27 26 25 25 24 23 22 21 21 20 20 20 21 22 24 25 27 28 29 30 31 31 31 31 31 32 33 33 33 34 36 37 35
5 2 7 9 4 5 8 3 5 7 3 2 3 6 6 7 6 2 2 3 4 4 4 4 3 6 5 5 8 6 6 8 9 9 17 21 19 20 22 22 20 17 14 10 7 7 10 14 16 19 21 24 25 24 23 23 23 23 22 21 21 20 20 19 19 19 21 22 24 26 28 29 30 32 32 31 30 30 30 30 30 31 31 33 35 34
1 2 5 7 6 6 7 4 5 6 6 2 4 5 6 7 7 6 4 4 1 2 3 4 2 5 7 6 8 6 7 10 10 9 16 21 18 16 19 20 19 18 15 12 9 8 11 13 15 17 18 19 19 20 20 21 21 21 20 20 19 19 18 17 17 18 20 21 22 24 25 27 28 29 30 28 27 27 27 27 28 29 28 29 33 36
2 3 4 5 6 6 6 5 6 7 7 3 3 5 8 7 7 6 6 4 2 3 4 4 4 2 6 6 6 5 6 10 11 10 14 18 18 17 17 18 17 15 13 15 14 10 10 13 14 16 16 15 16 17 18 19 18 18 18 17 17 17 17 17 17 17 18 19 20 21 22 24 26 27 27 26 26 26 26 26 27 27 28 28 31 35
2 4 4 6 5 4 5 5 6 10 6 3 3 6 6 7 7 5 6 4 1 1 4 4 2 1 6 7 5 5 4 8 10 11 12 16 17 15 14 15 15 12 11 13 13 10 10 11 12 14 14 15 15 17 18 17 17 17 16 16 16 16 16 16 16 17 17 18 18 19 21 22 23 24 25 25 26 26 26 27 27 26 27 28 29 31
2 3 5 6 5 5 3 1 2 6 3 4 6 7 6 6 6 5 5 4 3 2 5 5 0 1 5 8 4 2 3 7 9 9 9 12 12 11 9 7 8 11 9 9 11 10 10 10 10 12 13 14 15 17 18 17 17 17 16 16 16 15 15 15 15 16 16 17 18 19 20 20 21 21 23 24 25 26 26 27 27 27 27 28 29 30
2 1 0 3 3 5 5 4 4 3 6 10 7 7 7 7 5 4 3 4 3 2 6 6 2 0 3 7 5 4 5 6 5 6 8 10 10 10 7 3 3 8 10 10 10 10 9 8 9 10 11 13 14 16 16 16 16 15 15 15 14 14 14 14 14 15 15 16 17 17 18 18 19 19 21 23 24 24 25 26 26 26 26 27 29 30
4 3 0 1 2 5 7 6 7 5 7 8 4 5 5 4 4 4 4 3 2 4 6 4 2 1 4 6 5 5 7 6 5 5 7 9 10 9 8 7 5 9 11 11 10 10 9 7 7 7 8 10 12 13 14 13 13 12 12 12 11 11 11 11 11 12 12 14 14 15 15 16 16 17 19 20 21 22 23 24 25 25 26 27 29 29
3 0 2 2 1 5 5 5 5 4 3 5 5 6 5 2 3 2 3 1 3 6 4 2 1 2 6 8 8 11 12 7 6 8 9 10 10 8 7 6 7 10 10 10 10 10 10 9 8 7 7 9 10 11 11 11 10 10 9 9 8 7 7 7 7 7 8 10 11 11 12 13 13 15 17 18 19 20 21 22 23 25 26 27 27 28
2 4 2 2 1 5 5 5 4 1 1 4 6 6 4 3 2 2 4 2 3 4 3 3 2 3 5 6 9 14 13 7 6 10 11 10 10 9 7 4 5 9 10 9 9 11 12 11 10 9 9 9 10 10 10 10 9 8 7 7 6 6 6 5 5 6 6 7 8 9 10 10 12 13 15 16 17 18 19 21 22 23 24 25 26 26
4 4 3 3 2 4 4 3 6 6 3 3 3 5 5 5 5 4 4 3 4 3 3 3 2 3 3 3 6 12 14 13 13 15 16 15 14 12 10 4 1 6 8 7 9 11 12 11 11 11 10 10 10 9 9 8 8 7 7 7 6 6 6 6 6 6 6 6 6 7 8 9 11 12 14 15 17 18 19 20 22 22 23 23 24 24
3 4 4 2 1 5 4 2 4 6 2 2 2 5 3 4 5 3 3 5 3 1 2 2 3 5 4 6 9 9 11 12 11 13 16 19 17 13 11 7 3 5 7 6 7 10 10 10 11 11 11 11 10 9 8 7 7 7 7 7 7 6 6 5 5 4 3 3 4 5 6 8 10 12 14 15 16 17 19 20 21 22 23 23 24 24
2 3 4 4 2 3 2 2 2 3 3 2 2 3 5 4 7 6 2 1 3 1 3 1 4 6 4 6 9 6 8 10 8 8 10 14 14 13 12 9 6 6 6 6 8 10 10 10 10 11 11 11 10 9 8 8 8 8 7 7 6 5 4 4 3 3 2 1 1 2 4 7 9 11 14 15 17 18 19 21 22 22 23 24 24 24
5 2 4 2 1 2 2 2 4 4 3 4 3 5 4 3 5 5 2 3 4 2 4 1 5 5 2 4 7 5 3 8 9 8 6 8 10 12 13 10 7 6 7 8 10 11 11 11 11 11 12 11 11 11 11 11 11 10 9 8 7 6 4 4 3 2 1 1 2 4 5 7 9 11 13 15 17 18 20 22 22 22 23 24 24 25
5 2 3 2 2 3 4 3 3 5 4 4 4 4 4 3 2 2 2 2 1 2 4 4 4 4 4 5 5 4 5 8 10 9 6 8 10 11 10 7 4 4 7 10 11 12 12 11 12 13 13 13 14 14 13 12 10 8 7 5 4 3 2 1 1 1 2 4 5 6 8 9 11 13 14 15 17 19 21 22 22 23 24 25 25 26
4 3 2 2 2 2 3 2 5 1 4 4 3 3 3 3 4 2 2 4 3 3 3 4 4 4 7 6 5 8 9 8 9 8 7 10 8 6 6 3 0 1 5 10 11 13 14 13 14 15 15 16 16 15 12 10 7 5 4 2 2 2 3 4 4 4 6 8 8 9 11 12 14 15 16 17 18 20 21 21 22 23 24 25 26 27
3 2 3 2 3 1 1 3 6 6 3 3 3 3 1 1 2 2 0 2 4 4 3 2 4 5 6 4 7 10 9 8 8 6 7 11 6 4 5 5 4 3 7 10 11 14 16 15 16 17 17 17 16 13 10 6 3 1 0 2 3 4 6 7 7 7 9 10 11 12 12 14 15 16 17 19 20 22 23 22 22 21 22 24 25 26
2 3 4 1 1 3 4 4 4 6 6 6 5 6 6 4 4 3 3 1 3 3 4 3 4 8 6 5 7 7 5 6 7 5 8 14 12 8 7 7 7 6 9 11 11 12 14 16 18 17 15 13 11 9 6 3 3 4 4 5 6 6 7 9 10 10 11 11 11 12 13 14 15 16 18 20 22 23 23 23 22 22 22 23 23 25
3 4 5 2 3 5 4 3 2 3 2 3 4 4 6 5 5 6 6 3 2 1 2 4 2 7 4 4 6 6 5 5 5 6 10 15 15 13 11 4 5 10 11 11 12 13 14 16 16 14 12 9 5 4 3 3 5 5 6 6 6 6 7 11 14 14 13 13 13 14 14 15 16 18 19 20 21 22 22 23 23 23 24 23 23 24
4 4 4 1 3 3 4 4 3 1 2 2 4 3 5 3 3 5 5 4 4 3 2 4 3 7 4 1 3 6 8 8 6 7 10 11 11 12 11 2 10 15 15 16 18 18 16 16 14 12 9 5 2 0 1 2 3 4 5 6 7 6 7 10 13 14 15 16 16 15 16 16 17 18 20 20 21 21 21 22 23 24 25 24 24 24
6 2 4 3 2 4 4 4 3 2 2 3 3 2 4 4 6 5 2 3 2 5 7 5 5 8 4 4 3 2 6 6 3 3 5 6 6 5 4 7 14 16 16 18 17 16 14 13 10 8 5 1 1 2 3 4 5 7 8 10 11 11 11 11 12 14 16 17 16 16 16 16 16 17 18 19 20 21 21 22 22 23 24 24 24 24
8 3 5 7 5 6 6 5 5 4 3 2 1 3 5 7 8 5 2 4 3 5 6 6 8 8 3 5 5 4 5 4 1 1 3 3 4 6 10 12 14 14 14 14 13 11 9 7 5 3 2 2 3 4 6 7 10 12 14 15 15 15 15 15 16 16 17 17 16 16 15 15 16 16 17 18 19 20 20 21 21 22 22 23 24 24
4 2 7 9 11 12 11 7 4 7 7 5 5 7 8 8 10 7 4 4 7 5 4 7 12 12 8 2 4 6 4 3 4 2 4 7 11 13 14 12 11 11 11 10 8 6 4 2 1 3 4 4 5 7 9 11 13 15 16 17 17 18 17 17 17 17 16 17 16 15 14 15 15 16 16 17 18 20 21 22 22 23 23 24 25 25
4 3 9 9 13 13 8 6 4 7 9 11 11 11 10 11 11 10 8 12 11 5 7 13 11 13 15 7 5 8 5 4 7 7 8 11 13 13 12 12 11 10 8 8 8 6 4 4 6 6 6 6 7 9 11 12 14 15 16 17 17 17 16 15 14 14 14 14 14 13 13 13 14 15 16 18 19 20 22 23 24 25 26 26 27 28
4 6 8 7 12 13 6 6 6 6 8 9 12 14 13 14 14 14 16 18 12 9 14 14 10 12 19 10 9 10 7 8 10 9 9 11 12 13 14 14 14 11 10 9 9 8 9 10 10 9 8 8 8 9 11 12 14 14 14 14 13 13 12 11 11 11 10 11 11 11 12 13 14 16 17 18 19 19 21 22 23 24 25 25 26 27
3 5 6 7 9 12 8 7 6 8 7 5 9 12 13 15 17 18 20 21 18 15 16 11 6 13 19 9 8 12 16 17 15 8 8 12 14 15 16 16 17 16 16 16 16 16 16 15 12 10 10 9 9 10 12 12 12 11 10 11 11 12 11 10 10 10 9 10 11 12 13 14 15 16 17 18 19 19 20 21 21 22 23 23 24 24
3 4 3 6 5 9 7 7 7 7 7 6 6 7 10 14 16 18 19 17 14 12 13 12 9 15 15 5 8 17 21 18 14 12 15 17 17 18 19 22 24 24 24 26 24 20 15 12 11 10 11 12 13 13 12 10 10 11 11 12 12 12 11 10 10 10 10 11 12 12 14 15 16 17 18 19 20 21 22 22 22 23 23 24 24 25
4 2 2 5 4 7 4 7 7 4 3 2 6 6 11 13 13 15 13 10 10 10 12 12 10 15 13 6 9 17 14 11 14 18 21 23 25 28 30 31 33 32 32 32 27 19 13 12 12 13 14 14 14 14 14 13 14 14 13 12 11 10 9 10 10 10 11 13 13 15 16 17 18 19 19 21 22 23 23 24 24 24 25 26 26 27
5 4 2 4 5 6 2 6 8 7 5 3 9 13 16 13 11 10 7 8 12 12 11 11 11 16 13 4 7 11 7 11 18 23 25 29 32 34 36 36 37 36 34 32 28 23 20 17 16 15 14 14 15 16 16 15 14 12 10 9 9 8 8 9 11 12 14 15 16 18 19 20 21 21 21 22 23 24 24 25 26 26 27 28 28 29
4 5 3 4 4 4 1 7 8 5 4 7 8 12 16 15 14 12 10 14 17 13 10 10 11 13 11 5 9 10 8 13 21 25 27 29 30 32 34 34 33 32 28 25 23 21 19 16 14 13 14 16 18 17 15 13 10 9 8 7 7 8 8 10 12 14 16 18 20 21 22 23 24 24 24 24 24 25 26 26 27 28 29 30 31 32
4 5 3 2 3 2 3 7 4 6 9 8 4 7 13 16 16 15 15 17 16 13 12 13 14 14 15 16 16 13 11 14 18 20 21 21 23 26 27 26 25 21 18 17 16 15 14 12 12 14 15 16 16 14 12 10 8 7 7 7 8 9 10 12 14 16 17 19 21 22 24 25 25 25 25 26 26 27 28 29 30 30 31 33 33 34
5 4 2 2 3 2 3 4 6 5 3 5 5 3 6 8 9 10 12 14 14 14 13 14 18 19 21 25 21 13 11 12 13 16 15 13 16 18 18 18 16 13 12 11 11 11 11 12 11 11 12 12 11 10 9 8 7 7 8 9 10 12 13 15 17 18 19 19 20 21 22 23 25 26 27 28 29 29 30 31 32 33 34 35 36 37
5 4 2 3 4 3 4 6 4 4 5 7 7 4 4 6 9 9 9 11 14 15 14 14 17 18 20 25 22 14 10 10 10 11 10 10 12 12 11 10 9 9 9 9 9 9 9 9 8 8 8 8 8 7 7 7 8 9 9 11 13 14 15 17 18 19 19 20 20 20 21 22 24 25 26 28 29 30 30 31 32 34 35 37 38 39
6 4 4 5 4 4 6 7 4 5 9 10 7 4 4 7 11 11 8 9 9 13 18 17 14 15 17 20 20 12 6 6 8 5 6 9 10 9 8 8 9 9 10 9 8 8 6 6 6 5 5 6 6 7 8 9 10 11 12 13 14 14 16 17 18 19 19 20 20 21 22 22 24 25 26 26 27 29 30 31 33 34 35 37 38 39
7 5 4 5 4 4 6 8 7 7 7 6 4 2 1 7 11 10 5 8 4 5 15 17 13 16 19 17 14 9 6 6 8 2 8 9 8 9 9 8 8 8 8 8 7 6 6 4 3 3 4 5 7 8 9 10 11 12 13 13 13 15 17 17 18 19 20 20 21 21 22 23 24 25 26 27 28 29 31 32 33 34 35 37 38 39
7 4 4 5 5 5 7 7 5 5 4 3 4 3 1 9 13 9 4 7 2 5 5 12 13 15 15 10 8 8 5 7 5 7 10 9 9 9 8 8 7 7 6 6 5 4 3 2 1 3 5 6 8 9 10 11 12 12 13 14 15 16 18 19 20 20 21 22 22 22 23 23 24 26 27 28 30 31 32 33 34 35 36 37 39 40
5 4 5 7 6 7 8 5 2 3 4 5 5 4 8 11 6 4 6 4 2 7 4 4 6 6 5 5 8 7 4 4 8 12 11 9 9 10 9 8 6 5 4 4 3 2 1 1 2 3 5 7 9 11 12 13 13 14 15 15 17 18 19 21 22 22 23 24 24 24 25 25 27 28 29 30 32 33 34 35 35 37 38 39 40 41
6 4 4 6 6 6 6 4 3 4 5 5 5 7 11 7 2 5 4 5 7 8 9 6 5 4 4 6 10 13 14 14 14 13 11 10 10 9 9 7 6 5 4 3 3 3 3 4 5 6 7 9 11 13 14 15 15 16 17 17 19 20 21 23 24 25 25 26 26 27 27 28 29 30 31 32 33 35 36 37 37 38 39 40 41 42
6 5 4 5 6 4 4 4 4 5 3 7 9 6 5 5 5 9 12 10 10 13 13 13 13 12 13 16 18 19 18 16 14 13 12 10 9 9 8 6 5 5 4 4 5 6 7 8 9 10 11 13 14 15 16 17 18 19 20 20 21 23 24 25 27 27 28 29 29 29 29 30 31 31 33 34 35 37 38 39 39 40 40 41 43 44
5 6 4 4 4 5 5 6 5 2 1 5 6 3 3 5 8 14 15 11 12 15 16 18 19 16 17 20 20 18 16 15 13 12 10 9 8 8 7 7 8 8 8 9 10 11 13 13 14 15 15 16 18 19 20 21 23 23 24 25 26 27 28 29 30 31 32 32 32 33 33 33 33 34 35 36 37 38 40 40 41 42 42 43 44 45
4 4 3 3 3 3 3 4 3 1 1 2 3 3 8 10 9 12 16 17 18 17 16 18 19 16 16 16 15 13 12 11 9 8 7 7 7 8 8 9 10 11 12 13 14 15 16 17 18 18 18 17 18 20 22 23 25 27 27 28 29 30 32 33 34 35 36 36 37 37 37 37 38 38 38 39 40 41 42 42 43 43 44 44 45 45
2 2 4 3 2 0 1 2 3 3 5 8 9 11 15 15 13 13 14 16 16 15 14 15 15 14 12 11 9 9 7 6 6 6 7 8 9 10 11 11 12 13 14 14 15 16 16 17 18 19 20 19 19 21 23 24 26 28 29 30 31 32 34 36 37 38 39 40 41 41 41 42 43 43 43 43 43 44 44 44 45 45 45 45 45 46
2 3 3 2 3 3 1 3 5 6 8 13 16 16 17 18 18 17 14 12 14 15 14 14 13 12 11 8 7 5 2 2 4 6 7 8 10 11 11 12 13 13 15 16 16 17 18 19 20 21 22 22 23 23 24 25 26 27 28 30 31 32 34 35 37 39 40 41 42 43 43 44 45 46 46 46 46 45 45 45 45 46 46 46 46 46
2 5 3 2 4 3 1 3 6 6 8 12 15 17 18 19 19 18 16 15 15 15 15 13 12 10 8 6 5 4 3 1 0 2 3 5 6 8 9 11 11 12 14 15 17 18 19 20 21 22 23 24 24 24 25 26 26 27 29 31 33 35 36 38 39 40 41 42 43 44 44 45 46 46 47 47 46 46 46 45 45 45 46 46 46 47
4 6 4 2 4 2 2 1 6 4 2 8 13 15 18 20 20 18 17 17 16 16 15 14 11 9 7 5 4 4 3 3 2 2 3 5 6 8 9 10 11 13 14 15 17 19 21 22 23 24 25 26 26 27 27 28 29 30 32 34 36 38 40 41 42 43 44 44 44 45 45 45 46 46 46 47 47 47 46 45 44 45 46 45 45 46
5 5 3 3 4 3 3 7 12 6 2 10 18 20 20 20 20 19 19 18 17 15 14 12 11 9 7 5 4 3 3 4 4 4 5 7 8 10 11 11 12 14 15 16 17 18 20 22 23 25 26 27 28 29 30 31 32 34 35 37 39 40 42 43 45 45 46 46 46 46 46 46 46 46 46 46 47 48 48 47 45 45 46 46 45 45
7 6 5 6 5 4 6 16 24 15 5 9 19 23 23 22 20 19 19 17 15 13 11 10 9 8 8 7 7 6 6 7 7 7 8 9 10 11 12 12 13 14 15 16 17 18 19 21 22 24 26 28 29 31 32 34 35 36 37 39 40 41 42 44 45 47 47 48 48 48 47 47 47 47 47 47 47 48 49 49 48 46 46 46 46 45
Wind_Direction
123 136 177 186 187 191 198 171 144 155 142 138 131 120 148 173 246 257 262 305 23 138 257 273 271 277 273 276 279 280 285 285 280 279 275 271 267 264 262 261 259 258 258 258 256 255 255 256 255 254 251 249 249 249 251 253 254 254 251 250 248 246 246 245 243 243 243 243 244 242 242 243 242 241 246 254 256 250 246 247 248 252 257 260 256 255
119 174 213 207 191 177 164 131 106 96 89 98 134 144 170 198 232 254 268 316 11 142 264 356 323 278 268 273 274 277 283 274 267 266 267 268 267 266 265 264 263 263 263 263 261 259 259 259 257 255 252 247 247 247 250 253 255 255 252 250 249 246 244 244 244 243 243 244 245 245 245 245 246 243 242 247 254 258 257 253 254 257 259 264 259 250
153 219 232 199 150 107 88 88 95 92 87 88 116 134 171 222 240 278 299 330 15 109 262 355 336 278 266 269 269 266 261 259 262 259 261 265 266 267 268 268 269 269 268 266 264 262 260 259 257 253 249 245 245 246 248 250 251 250 248 247 247 246 245 245 246 247 248 249 249 250 251 250 251 251 249 247 249 255 259 260 258 253 251 260 263 253
181 252 239 172 139 110 87 66 90 88 80 92 111 134 190 243 198 222 288 328 11 69 264 321 312 283 279 282 273 266 259 261 264 261 262 262 262 266 268 271 273 274 273 270 266 262 257 254 251 248 244 242 242 242 244 244 245 245 244 245 246 247 249 248 249 251 252 251 249 249 251 253 253 254 254 252 250 250 251 251 249 245 245 253 258 255
205 264 174 141 130 123 122 103 114 117 88 70 143 145 169 196 177 193 286 330 1 26 33 15 321 294 306 313 284 281 286 274 268 267 266 261 259 264 267 270 272 275 275 269 261 252 244 241 240 240 238 237 237 237 238 239 240 242 243 244 245 246 249 250 251 252 252 250 248 247 246 247 248 249 250 250 250 249 247 247 245 243 241 245 248 250
235 235 137 129 102 114 128 161 181 155 152 265 218 177 173 173 162 146 33 53 35 356 357 27 334 287 316 311 272 301 342 305 293 285 273 269 266 265 267 269 268 269 270 262 245 219 216 224 228 232 232 231 232 231 231 232 234 237 238 240 242 244 246 249 251 251 252 251 250 249 246 245 246 248 249 251 254 254 254 255 255 252 246 243 245 248
229 111 119 127 126 122 129 183 209 154 131 215 238 176 148 132 129 127 108 86 86 265 327 49 144 265 311 292 265 310 335 306 304 294 278 279 282 281 279 279 273 266 261 253 245 224 213 216 220 225 227 227 227 225 224 224 226 229 232 234 236 240 242 245 248 248 250 252 252 252 251 252 252 253 257 260 263 264 265 265 263 262 257 249 247 249
126 101 76 100 114 117 138 196 211 147 130 212 232 134 126 122 133 141 109 95 194 238 329 18 115 249 298 267 267 330 331 308 304 292 285 285 289 294 289 282 274 268 262 249 237 222 211 212 215 218 219 219 216 215 215 216 218 221 223 226 227 232 236 239 242 245 248 250 253 255 255 256 256 258 263 266 268 268 269 268 266 265 263 255 248 248
93 149 169 138 124 143 178 217 189 144 124 236 200 119 124 125 126 118 96 92 29 0 310 319 90 204 272 272 304 349 314 292 285 274 280 289 297 307 297 278 261 253 252 237 216 204 203 204 207 209 209 210 207 207 208 207 209 212 213 216 220 225 231 235 239 242 245 248 251 252 253 255 257 260 264 265 267 267 267 267 266 265 264 261 257 253
47 177 197 149 148 188 198 305 167 143 124 170 145 98 81 76 79 80 88 100 51 19 251 263 288 195 264 280 298 332 257 254 263 266 271 289 313 333 324 290 242 224 216 202 188 186 195 196 198 200 200 201 199 200 201 200 202 206 209 213 218 223 228 233 237 240 242 245 247 248 250 253 256 259 262 263 265 265 266 267 266 266 265 263 262 261
336 53 125 112 152 170 134 61 37 80 132 139 119 77 64 38 36 49 55 83 64 307 253 254 286 189 265 277 255 219 224 216 237 285 289 302 336 359 3 16 169 174 167 169 172 176 185 186 188 191 191 192 194 195 196 196 200 205 211 215 219 224 228 232 235 238 240 242 244 247 249 253 256 259 261 262 264 265 266 267 269 269 269 267 265 263
355 60 40 43 129 130 108 61 37 62 113 116 94 92 85 8 12 24 1 43 98 255 261 268 292 172 226 261 252 242 256 231 218 256 274 297 330 1 25 48 100 137 146 153 159 165 169 167 167 172 178 183 186 188 189 190 196 202 209 215 218 223 228 233 236 238 241 242 245 248 250 254 257 259 260 262 264 267 268 270 272 272 270 269 268 266
357 65 299 10 172 166 121 77 46 15 29 75 100 109 95 11 16 2 310 338 216 242 271 281 238 214 235 251 260 267 270 252 225 239 249 275 304 335 10 40 89 118 131 141 149 157 155 150 150 152 159 170 174 176 180 183 191 198 204 208 211 215 220 226 232 238 242 246 250 253 256 259 260 260 262 264 266 268 270 271 272 271 271 270 269 269
282 303 315 86 227 216 162 127 134 240 234 127 135 132 130 122 101 247 260 286 260 257 295 286 247 262 273 266 249 251 260 268 272 266 263 271 291 312 329 357 91 115 126 135 147 156 154 149 155 160 158 162 168 172 178 185 191 196 201 203 203 208 211 210 213 223 234 245 252 257 260 261 262 263 265 267 268 269 269 270 270 270 271 272 272 272
194 271 231 168 198 192 179 171 156 147 142 174 163 132 146 155 154 203 213 203 237 275 308 296 255 203 225 274 238 239 262 279 276 267 264 267 278 296 305 306 135 135 135 143 157 160 160 159 164 169 169 169 173 177 182 186 191 195 201 204 206 209 210 207 210 218 229 241 250 257 263 268 270 272 273 272 273 274 273 273 273 273 273 273 274 274
175 250 258 297 290 154 165 212 136 113 111 247 116 105 161 185 140 136 177 173 169 339 313 265 237 216 215 275 274 263 274 282 273 261 259 260 266 280 288 292 261 189 160 160 172 169 171 172 173 175 177 180 180 180 182 184 189 195 197 199 201 203 203 201 202 203 205 221 247 265 274 280 281 281 280 279 280 281 281 281 280 280 280 279 278 277
159 260 309 348 10 94 121 207 122 115 172 168 121 172 213 169 112 113 193 71 81 227 271 226 251 289 321 289 293 298 280 288 294 276 261 256 258 265 270 281 275 222 181 171 178 180 185 186 184 182 181 182 178 174 174 169 166 161 155 153 151 150 152 150 148 142 128 124 278 288 285 285 286 285 284 283 282 282 281 280 281 282 284 284 285 285
156 182 324 32 115 350 9 100 66 45 106 124 174 207 193 119 94 110 165 11 44 240 275 282 246 288 320 273 317 355 262 274 287 283 281 266 250 249 259 269 268 241 215 202 191 191 198 196 191 187 182 179 169 161 155 145 138 131 124 121 119 117 117 117 117 107 73 0 311 299 295 293 291 288 285 284 282 282 280 279 281 282 283 285 287 287
133 137 312 29 160 301 350 102 97 22 49 119 176 168 118 139 164 89 140 166 120 233 276 299 278 263 210 231 302 312 221 236 261 274 298 280 249 246 261 267 258 248 223 205 196 199 205 201 194 186 180 173 162 153 144 132 124 120 112 107 114 117 116 148 215 275 291 293 294 297 299 298 295 291 287 286 286 285 284 283 283 280 279 281 283 285
119 136 250 318 267 292 16 131 191 200 32 56 106 107 80 128 163 157 153 163 166 193 247 309 324 266 226 213 219 235 227 219 243 264 281 278 270 271 282 271 172 257 197 186 192 203 205 198 191 183 177 171 161 151 139 126 119 119 112 108 148 202 231 221 230 243 255 268 274 280 287 290 291 289 288 289 289 288 288 288 287 283 281 281 280 281
110 144 207 299 322 227 182 213 189 168 139 99 123 159 180 71 110 161 130 117 139 157 189 270 296 266 249 206 194 223 232 215 222 239 262 277 301 350 323 303 295 262 188 184 194 202 200 191 185 181 177 173 166 156 144 131 126 136 219 260 235 237 237 226 228 239 245 253 260 267 273 276 279 282 284 287 286 285 286 287 290 290 287 284 280 280
141 150 167 157 313 198 224 248 192 174 168 160 171 184 181 155 124 154 242 245 115 140 166 176 264 267 249 204 200 218 225 219 226 238 268 282 297 316 320 305 276 228 189 191 193 189 187 181 178 178 173 168 167 168 172 196 238 249 251 250 244 243 243 238 241 248 253 256 261 265 269 272 278 282 284 285 285 284 285 287 289 290 287 285 284 282
119 110 124 153 217 215 245 275 218 204 173 154 194 194 176 172 140 152 209 221 117 143 149 118 262 273 253 194 206 226 249 270 262 244 260 280 296 309 318 312 184 168 160 159 155 153 160 165 166 164 157 152 153 169 201 226 232 239 241 244 251 254 246 240 240 244 251 260 267 271 277 282 287 290 289 290 289 288 287 286 285 285 284 283 283 282
119 115 131 196 302 306 314 337 9 33 108 182 238 191 163 186 149 144 181 172 146 186 152 102 267 272 284 290 235 246 270 287 276 251 263 284 302 310 311 275 150 145 136 132 133 134 139 147 147 146 147 148 143 269 277 259 254 266 274 283 296 293 267 251 249 251 257 266 274 281 287 292 293 292 292 292 292 291 289 286 283 282 283 284 284 283
177 163 131 125 8 346 334 340 330 290 198 201 234 164 144 126 99 99 114 107 153 213 167 152 237 256 285 324 331 309 302 308 304 262 275 293 303 294 253 173 152 144 135 132 131 126 126 132 135 137 136 112 3 330 308 294 293 299 304 306 305 300 285 273 270 271 275 280 286 292 297 299 295 292 291 291 291 292 291 289 288 286 287 288 288 287
177 184 146 156 181 200 211 215 221 210 178 198 185 137 155 142 134 153 133 108 230 229 160 172 236 251 298 342 335 335 339 335 340 172 212 217 184 165 161 158 153 146 142 140 135 127 123 121 116 98 56 7 339 326 315 309 309 309 306 301 295 288 282 280 281 285 289 292 294 299 302 299 294 290 290 291 292 293 294 295 294 293 293 293 291 290
140 192 183 191 202 206 209 208 175 126 139 199 194 162 174 175 166 161 122 163 217 203 169 219 236 248 259 273 297 297 296 275 271 239 198 181 165 159 159 163 166 162 159 156 152 150 141 117 15 3 0 343 327 318 311 308 307 304 297 290 284 282 280 283 286 289 291 294 297 301 299 294 291 290 292 293 294 296 297 298 299 298 299 298 296 296
86 208 203 204 218 224 212 194 174 140 163 195 190 175 180 181 175 171 186 215 211 173 235 237 219 244 254 211 208 262 254 242 257 237 205 184 168 166 175 187 195 189 184 184 187 199 226 274 299 318 325 317 306 300 296 295 293 289 285 279 277 278 281 283 286 287 289 292 296 296 293 290 291 293 296 298 299 300 300 300 301 302 302 303 302 302
113 207 210 194 224 240 213 171 186 178 179 194 190 186 184 179 181 190 209 222 207 189 238 235 176 221 251 223 197 230 221 218 236 223 199 189 184 192 201 210 217 218 218 216 218 239 269 285 296 303 297 289 283 280 282 284 285 282 276 271 272 277 281 283 285 287 291 292 293 293 293 296 298 300 303 304 304 303 303 302 303 304 305 306 306 306
145 211 206 173 219 248 222 176 184 187 185 203 200 189 184 185 191 199 212 223 218 215 239 246 190 229 250 229 192 227 232 234 241 234 215 210 209 214 222 230 236 237 239 244 253 270 284 288 288 287 285 287 289 286 285 284 282 277 269 270 277 281 284 287 288 291 293 294 296 298 300 302 303 305 306 306 305 305 304 304 305 305 307 307 308 308
181 220 185 144 204 257 227 180 192 195 186 208 219 193 186 195 202 210 218 223 223 229 249 261 261 260 258 207 192 237 239 234 239 239 236 237 235 237 241 244 248 251 256 263 272 283 289 284 280 286 293 298 298 296 293 289 285 283 281 282 281 278 282 287 291 295 297 298 300 300 302 302 303 304 304 303 304 303 303 303 303 304 304 304 305 305
180 212 69 110 179 254 228 169 175 149 109 234 255 219 197 200 208 217 220 218 212 218 239 249 254 261 257 186 201 239 230 210 227 233 236 244 246 247 250 252 255 260 266 274 283 292 294 289 291 297 298 296 294 293 294 293 292 288 283 279 274 273 281 287 294 300 300 301 304 304 305 305 303 303 302 301 301 300 301 302 303 303 303 302 302 301
160 160 128 136 185 254 265 138 137 107 84 259 248 223 208 204 210 218 225 229 219 207 217 229 231 248 255 182 196 234 199 189 224 229 231 239 243 247 251 254 259 264 270 277 282 283 285 288 293 294 292 291 291 292 293 291 286 276 265 262 265 272 284 291 296 301 301 304 307 307 307 307 305 305 304 302 301 301 302 304 304 305 305 304 303 302
141 145 171 166 180 245 187 112 112 128 201 236 228 208 207 206 205 208 216 223 220 208 214 232 239 254 263 224 210 227 209 213 233 238 240 242 245 251 255 258 263 266 269 271 272 273 278 282 285 285 286 287 287 286 283 275 265 256 252 259 271 281 291 297 297 297 298 301 304 306 307 307 306 307 306 306 306 306 307 308 307 308 308 307 306 306
140 151 172 151 157 204 113 106 141 208 223 244 240 183 199 209 204 206 221 229 226 217 221 239 251 255 254 246 241 241 240 241 247 253 254 249 247 253 258 261 265 266 263 262 262 265 269 271 274 278 278 278 275 267 258 250 245 249 258 270 283 291 295 296 294 293 295 298 300 302 304 305 306 307 308 309 309 310 312 312 312 312 312 310 310 310
148 153 151 134 160 166 118 157 213 235 257 283 287 200 189 199 191 203 235 247 239 226 219 228 241 246 249 254 255 255 256 257 259 259 256 248 246 248 250 253 257 257 254 252 250 253 257 259 261 261 259 257 250 243 242 245 252 264 275 284 291 295 295 295 295 296 298 300 301 302 303 304 305 306 308 310 311 312 313 314 314 315 315 313 313 312
147 142 144 187 200 204 217 221 236 309 309 276 262 237 177 167 169 184 226 247 238 228 219 222 238 245 252 258 258 257 258 265 268 257 241 234 240 239 234 235 237 238 237 232 233 238 239 237 231 224 230 236 239 248 257 267 276 282 287 292 295 298 298 297 299 301 303 305 306 307 309 309 308 308 309 310 311 312 313 314 315 317 317 316 315 315
166 176 176 196 207 195 223 244 250 256 257 251 239 219 185 187 178 169 202 244 246 224 213 216 234 243 247 256 254 243 236 262 273 250 192 204 221 215 207 208 208 215 218 215 218 213 199 201 204 206 230 248 259 272 279 285 290 292 294 299 301 302 301 301 303 305 306 309 312 314 316 316 315 314 313 313 313 314 314 315 316 316 316 316 315 314
182 194 181 194 208 180 203 232 230 227 245 244 226 260 243 179 157 134 184 244 272 226 211 209 222 237 243 250 240 200 171 242 264 169 136 168 186 178 182 188 186 193 196 194 195 188 181 187 202 229 259 270 277 285 290 295 299 301 304 308 308 306 305 305 307 307 309 312 316 317 318 318 316 315 314 314 314 313 314 314 315 314 314 313 312 311
183 186 185 200 212 200 204 220 227 236 248 215 221 284 106 142 136 123 194 238 312 0 239 210 217 239 249 244 204 171 181 238 229 123 127 150 154 150 153 150 149 157 161 160 161 164 179 198 232 260 278 290 295 301 306 308 310 312 314 315 312 309 308 308 309 310 311 313 315 315 314 314 313 312 311 311 311 311 311 312 312 312 311 310 309 308
182 176 192 206 213 212 217 227 245 260 238 209 208 186 139 127 132 185 215 221 36 25 18 201 221 266 274 220 184 165 144 131 126 123 130 138 131 127 123 117 119 119 114 117 110 93 71 351 348 327 321 322 319 319 320 320 321 320 318 316 313 311 311 310 310 311 311 312 313 312 312 312 311 310 310 309 309 309 309 309 309 309 308 307 306 305
185 182 190 207 213 213 223 232 243 270 250 193 162 153 146 141 245 220 162 96 93 88 78 96 108 73 90 142 143 131 118 113 119 125 124 121 116 110 104 102 102 93 82 72 48 29 10 4 7 1 348 338 332 329 326 324 325 324 321 318 315 313 312 310 309 309 309 310 310 310 310 310 308 308 308 307 307 306 306 306 306 305 305 305 304 303
176 176 181 199 200 193 214 214 211 255 243 150 138 139 164 196 192 145 122 97 103 108 99 98 99 98 109 115 115 120 121 117 114 112 107 104 98 88 84 79 68 55 35 17 6 357 353 353 353 353 351 344 337 333 330 327 326 325 323 320 318 315 313 310 309 308 308 308 308 307 307 306 305 304 304 304 304 303 303 304 304 303 303 303 302 301
179 181 187 200 185 166 197 212 204 248 263 148 155 179 178 170 149 137 134 123 114 115 112 106 102 104 113 114 112 116 117 109 102 97 91 84 73 60 48 37 28 17 3 356 350 344 341 336 332 333 337 336 333 331 329 327 324 322 320 318 316 314 311 309 308 307 307 308 307 306 305 304 303 302 302 302 302 302 301 302 302 302 302 302 301 301
203 186 159 177 184 158 191 212 192 114 119 167 184 151 130 132 139 145 144 132 123 122 119 113 110 110 110 109 107 105 101 93 84 71 57 48 34 19 11 6 1 357 353 348 343 338 333 329 325 324 324 324 324 323 321 320 319 316 315 315 314 312 310 309 308 308 309 309 308 307 306 304 302 302 302 302 302 302 301 301 301 301 301 301 302 301
226 161 103 113 194 297 52 161 147 120 130 139 140 136 130 130 138 147 144 136 132 134 130 126 126 125 121 120 114 100 83 66 50 28 12 5 356 348 347 343 339 338 336 332 330 327 322 320 318 316 316 317 318 316 316 316 316 316 315 315 314 313 312 311 310 309 309 309 308 307 306 305 303 302 302 301 301 301 301 301 302 301 301 301 302 302
279 163 109 110 184 182 159 173 168 163 157 146 142 145 145 144 150 158 162 158 153 151 149 146 144 144 144 147 145 129 96 37 12 358 350 344 336 330 327 324 322 323 321 319 319 317 315 314 313 312 313 316 317 318 318 318 319 319 318 317 316 315 314 313 312 312 311 311 310 309 308 307 305 303 302 301 301 300 300 300 301 300 300 300 301 302
212 163 149 182 184 169 184 177 157 161 176 167 159 162 166 167 168 170 173 171 165 161 160 156 154 155 154 151 152 151 145 142 353 334 321 310 307 305 306 309 311 313 314 315 315 315 315 317 318 319 320 320 321 321 320 321 322 322 321 321 320 319 318 317 316 315 315 315 315 313 312 310 307 305 303 302 301 300 299 299 299 299 297 297 299 300
137 159 176 163 139 125 341 151 136 124 206 206 195 189 184 182 179 176 174 174 172 168 163 156 152 153 148 142 147 147 150 172 196 251 282 290 298 301 302 307 310 311 312 313 313 315 317 318 320 321 322 323 323 323 323 323 324 324 323 322 320 318 317 316 315 315 315 315 315 314 314 312 310 308 305 303 301 300 299 298 298 298 296 295 296 297
142 171 177 106 133 194 227 173 166 164 225 219 212 205 194 188 186 180 175 170 166 164 161 157 159 163 166 176 195 211 232 242 252 272 285 292 298 300 302 306 307 308 308 309 310 311 313 315 317 317 318 319 320 320 320 321 322 322 321 319 317 316 315 314 313 312 312 313 313 313 313 313 312 310 307 305 303 301 299 297 296 297 296 296 295 295
178 185 173 152 173 223 205 184 187 192 212 219 211 203 193 187 184 179 172 168 167 170 173 178 188 195 202 213 222 232 246 259 267 272 280 286 289 292 297 301 302 304 306 306 308 309 310 312 314 314 315 316 317 317 318 319 319 319 317 316 315 314 313 313 312 311 311 312 312 312 312 312 311 311 309 307 305 303 302 300 298 296 296 297 297 296